Location: ???????
(55.3754°N, 39.3545°E)
Time: 19:28:24
(UTC+00:00)

Cosmos 1125 Rocket - Pass Details

Date: 14 April 2026
Orbit: 752 x 776 km, 74.0° (Epoch: 19 May)

Event Time Altitude Azimuth Distance (km) Brightness Sun altitude
Exits shadow 18:55:02 13° 198° (SSW) 2,087 5.4 -18.1°
Maximum altitude 18:59:41 76° 114° (ESE) 796 3.4 -18.5°
Drops below altitude 10° 19:04:57 10° 30° (NNE) 2,324 6.3 -18.9°
Sets 19:07:21 0° 29° (NNE) 3,258 7.1 -19.1°
